This demonstration page uses our WeatherBlox Daily Observations layout. Learn more.

Left ArrowRight Arrow

41.86663, -103.66717

Hourly Observations for August 25, 2021

Temp ( °F °C ) Dew Point ( °F °C ) Humidity (%) Winds ( mph kmh ) Pressure ( in mb ) Visibility ( mi km ) Precip ( " mm )
12:53 am 00:53 Clear 67 19.4 50 10 55 55 undefined N/A 29.99 1016 10 16 N/A
1:53 am 01:53 Clear 65 18.3 50 10 59 59 ENE 13 20 30.01 1016 10 16 N/A
2:53 am 02:53 Clear 63 17.2 49 9.4 60 60 undefined N/A 30.04 1017 10 16 N/A
3:53 am 03:53 Cloudy 62 16.7 48 8.9 60 60 ENE 7 11 30.06 1018 10 16 N/A
4:53 am 04:53 Partly Cloudy 60 15.6 47 8.3 62 62 N N/A 30.09 1019 10 16 N/A
5:53 am 05:53 Cloudy 60 15.6 47 8.3 62 62 ENE 5 7 30.09 1019 10 16 N/A
6:53 am 06:53 Cloudy 63 17.2 44 6.7 50 50 ESE 5 7 30.14 1021 10 16 N/A
7:53 am 07:53 Mostly Cloudy 62 16.7 47 8.3 58 58 NE 7 11 30.14 1021 10 16 N/A
8:13 am 08:13 Mostly Cloudy 62 16.7 46 7.8 56 56 ESE 3 6 30.14 1021 10 16 N/A
8:53 am 08:53 Cloudy 64 17.8 48 8.9 56 56 ENE 3 6 30.15 1021 10 16 N/A
9:53 am 09:53 Cloudy 64 17.8 46 7.8 52 52 E 3 6 30.16 1021 10 16 N/A
10:53 am 10:53 Cloudy 68 20 48 8.9 49 49 VRB 7 11 30.15 1021 10 16 N/A
11:53 am 11:53 Partly Cloudy 72 22.2 52 11.1 50 50 SE 7 11 30.12 1020 10 16 N/A
12:53 pm 12:53 Sunny 76 24.4 54 12.2 47 47 SE 15 24 30.09 1019 10 16 N/A
1:53 pm 13:53 Sunny 78 25.6 56 13.3 47 47 ESE 16 26 30.06 1018 10 16 N/A
2:53 pm 14:53 Sunny 81 27.2 57 13.9 44 44 ESE 13 20 30.02 1017 10 16 N/A
3:53 pm 15:53 Sunny 83 28.3 59 15 44 44 E 14 22 29.98 1015 10 16 N/A
4:53 pm 16:53 Sunny 85 29.4 60 15.6 43 43 ESE 16 26 29.95 1014 10 16 N/A
5:53 pm 17:53 Sunny 84 28.9 61 16.1 46 46 ESE 15 24 29.94 1014 10 16 N/A
6:53 pm 18:53 Sunny 80 26.7 61 16.1 52 52 ESE 16 26 29.93 1014 10 16 N/A
7:53 pm 19:53 Clear 77 25 60 15.6 56 56 SE 14 22 29.96 1014 10 16 N/A
8:53 pm 20:53 Clear 74 23.3 60 15.6 62 62 SSE 15 24 29.99 1016 10 16 N/A
9:53 pm 21:53 Clear 71 21.7 61 16.1 71 71 SE 10 17 30.01 1016 10 16 N/A
10:53 pm 22:53 Clear 70 21.1 61 16.1 73 73 SE 10 17 30.03 1017 10 16 N/A
11:53 pm 23:53 Clear 67 19.4 61 16.1 81 81 ESE 10 17 30.01 1016 10 16 N/A

Powered by AerisWeather